Terminal Aerodrome Forecast
Issued by NWS Raleigh/Durham, NC

Home | Current Version | Previous Version | Text Only | Print | Product List | Glossary On
Versions: 1 2 3 4 5 6 7 8 9 10 11 12 13 14 15 16 17 18 19 20 21 22 23 24 25 26 27 28 29 30 31 32 33 34 35 36 37 38 39 40 41 42 43 44 45 46 47 48 49 50
000
FTUS42 KRAH 230830 AAB
TAFFAY
TAF AMD
KFAY 230830Z 2309/2406 21005KT 1SM BR OVC002
      TEMPO 2309/2312 2SM BR BKN006
     FM231400 23004KT P6SM SCT020 BKN080
     FM231800 24008KT P6SM VCSH BKN050
     FM232300 24009KT P6SM SCT035 BKN120=

USA.gov is the U.S. government's official web portal to all federal, state and local government web resources and services.